Vertical_Velocity
9 -4 3 -0 -1 -2 -3 -4 -9 -4 -10 -2 -4 -3 9 5 7 6 11 1 -6 2 -1 -2 -4 -2 3 1 -1 -1 -1 -2 1 1 1 1 -0 -1 0 1 0 -1 0
-3 -0 -2 -4 -5 -1 -1 -5 -2 -11 -7 -3 -4 -2 0 -4 -0 4 -3 1 7 -3 -3 0 -1 -1 -1 -2 0 0 1 -2 -0 1 -1 -1 0 2 2 0 -1 -2 -1
-1 11 4 4 0 1 -0 -7 -3 -6 -5 -2 -8 0 -12 -10 2 23 -7 7 3 10 5 3 2 -1 -1 -0 0 3 2 0 0 -0 1 0 3 0 1 1 -0 -1 -1
6 8 4 4 3 3 -2 -2 2 -3 -5 -6 -6 -4 -1 3 24 6 2 1 6 -3 3 0 2 -2 -1 -1 4 1 -0 -0 1 -2 2 1 1 3 1 2 -1 -1 -1
2 6 -1 3 4 -1 1 -2 -3 -3 -5 -3 -0 1 1 10 18 -3 -1 12 15 6 3 -0 2 -1 -1 0 2 -1 2 2 0 2 2 1 0 2 2 2 -1 -2 -0
-3 -1 5 -3 -1 -0 -4 -5 -5 -3 -4 -0 -3 -3 -1 10 -9 12 6 12 8 3 1 2 2 0 -0 -0 4 0 1 2 1 -1 -1 2 1 0 1 0 -1 -2 -3
-3 -3 -8 -7 -8 -0 -3 2 -3 -4 -1 1 -2 4 -0 -5 19 4 13 -18 4 -2 2 3 -0 1 1 -1 -1 1 0 1 3 2 3 1 2 -0 3 2 1 -3 -3
-8 -7 -1 1 -1 -2 -6 -12 -2 8 2 2 4 -7 -1 16 6 4 8 8 5 12 5 0 -2 3 2 0 0 -1 2 -3 -1 3 2 3 4 -0 -3 -2 1 -2 -3
6 6 12 0 2 1 3 0 5 4 11 8 6 2 13 22 11 9 16 -4 14 14 5 1 -1 3 2 3 0 1 -0 -2 1 3 1 4 1 0 2 -1 -1 -4 -5
-3 7 -4 -8 -0 13 14 18 15 4 5 6 7 -16 0 16 15 4 -2 2 4 1 2 1 -2 5 -1 -2 -4 3 1 1 2 2 0 3 1 1 0 -2 -1 -3 -3
-6 -2 -0 11 2 3 -5 41 14 13 12 14 -10 -11 20 4 5 0 -2 -1 2 -1 -4 0 2 2 3 1 0 2 2 0 -1 3 4 2 2 -1 -1 1 1 2 -0
4 -1 1 7 1 8 21 -3 34 11 -4 -9 -9 5 -2 2 -0 -1 11 -0 5 4 1 1 -1 0 4 1 2 -0 2 5 5 2 1 1 -1 0 0 -1 4 3 1
4 11 -4 24 15 26 12 2 14 25 5 -1 -0 2 2 5 2 -2 -1 2 -1 -3 -2 2 1 4 7 1 3 2 1 1 3 3 2 0 -2 2 -1 -0 5 -2 -2
22 12 15 -4 10 -5 26 15 13 11 2 15 -4 3 -4 1 -2 -7 -2 -2 0 1 1 5 6 4 3 3 -1 0 2 4 -0 2 1 -0 -0 1 -2 -1 3 -0 0
29 19 9 30 21 19 18 10 -1 8 17 -6 -8 -2 7 3 8 -3 1 3 5 4 3 4 6 1 -1 -0 6 3 -1 2 5 1 2 -1 2 1 -0 1 -2 4 0
20 20 8 12 17 16 13 18 10 6 32 26 6 -7 -7 11 4 2 7 8 8 5 7 6 5 4 8 11 5 -0 1 10 3 13 8 -3 6 -0 -1 1 -1 1 1
9 20 2 4 3 6 9 6 4 6 8 13 4 -4 7 2 17 10 10 13 13 23 8 1 2 11 13 10 7 -5 1 9 7 7 0 -6 1 2 6 4 -1 2 2
1 -2 -6 -14 -8 -11 -6 -7 -7 -12 -13 -13 -15 -5 -3 -12 -4 -12 -1 -8 -0 -4 2 6 9 4 -1 6 5 16 11 1 -3 3 1 4 -3 7 10 7 10 11 7
1 0 11 10 10 8 3 1 3 -5 6 0 5 12 13 1 2 -1 -12 -9 -10 -8 -14 -15 -9 -8 -8 -7 -10 -9 -10 2 -2 -2 -1 -1 0 -1 -3 -6 -1 -6 -7
2 0 0 -1 -3 -3 -2 -6 -4 -8 5 5 5 5 -2 -4 -3 -5 4 1 3 2 -2 -0 3 6 6 3 2 6 1 -6 -8 9 4 7 9 12 6 12 12 9 13
-2 -2 1 2 0 -2 1 0 -0 3 -4 -1 -4 -7 -5 -5 -4 -1 -4 -5 -4 -8 -4 -5 4 2 0 -1 -3 -8 -4 23 10 6 3 4 5 12 6 6 8 4 5
-1 -2 -4 -1 -1 1 1 2 -0 3 -0 -0 2 3 -2 0 -4 -6 -7 -5 -6 -6 -5 2 -2 -5 -0 3 2 -1 3 4 -8 -6 3 8 0 3 -2 7 -1 -1 -4
-5 -5 -8 -3 -0 -4 -3 -3 3 2 -2 5 1 -0 4 -3 -5 -3 -3 -1 -1 1 -5 -4 -2 -6 -3 -4 -4 -1 4 -1 4 2 -2 -4 3 -5 -7 -1 -2 -1 -0
1 2 4 2 -0 2 -10 -0 3 -2 -2 2 1 -0 -3 3 4 -8 2 3 2 -2 -4 1 3 3 -2 5 5 1 -0 5 8 0 4 3 -1 2 11 -0 6 9 5
-0 1 2 1 2 1 8 2 -4 -3 6 1 -6 9 1 -10 -8 5 -2 -2 -1 -4 3 5 -1 -5 2 2 -8 -3 3 6 7 5 -9 4 12 5 5 6 10 6 2
-0 -0 -3 -4 -3 -4 1 7 9 -1 -12 -13 -7 -9 -3 6 -1 -4 -3 -5 2 1 -2 3 -11 -4 4 8 -4 4 6 4 12 10 1 -2 16 11 -2 3 5 5 6
Height
5627 5631 5633 5637 5645 5652 5658 5664 5668 5677 5684 5688 5695 5702 5714 5729 5739 5746 5756 5764 5772 5781 5788 5800 5806 5813 5821 5827 5830 5835 5838 5843 5845 5848 5850 5852 5854 5854 5855 5856 5856 5855 5855
5602 5611 5613 5616 5626 5632 5638 5644 5649 5654 5662 5667 5675 5684 5694 5708 5726 5734 5743 5752 5763 5776 5783 5792 5799 5807 5814 5820 5824 5829 5833 5837 5840 5842 5844 5847 5849 5849 5849 5850 5850 5848 5849
5575 5585 5587 5595 5603 5613 5619 5625 5629 5633 5640 5647 5655 5665 5676 5688 5709 5721 5733 5743 5755 5764 5775 5783 5792 5800 5807 5814 5818 5823 5827 5831 5833 5835 5840 5841 5843 5843 5844 5844 5844 5844 5843
5546 5559 5568 5580 5593 5601 5605 5610 5614 5619 5624 5632 5639 5650 5663 5680 5704 5714 5727 5736 5742 5755 5767 5777 5785 5793 5799 5806 5811 5816 5820 5824 5827 5830 5833 5835 5836 5837 5837 5837 5838 5838 5837
5527 5544 5561 5576 5585 5591 5596 5601 5606 5609 5613 5617 5627 5639 5651 5677 5691 5706 5722 5734 5740 5749 5760 5769 5779 5785 5792 5800 5804 5809 5813 5817 5821 5824 5826 5828 5830 5830 5830 5830 5830 5830 5830
5528 5543 5558 5568 5577 5585 5590 5595 5597 5600 5604 5609 5619 5629 5644 5667 5686 5702 5715 5725 5730 5741 5751 5762 5770 5779 5786 5792 5798 5802 5805 5809 5813 5817 5819 5821 5823 5823 5823 5823 5822 5822 5822
5537 5549 5559 5567 5574 5579 5583 5586 5589 5593 5599 5606 5616 5627 5642 5662 5679 5691 5702 5709 5720 5732 5743 5753 5763 5773 5780 5784 5790 5794 5798 5802 5807 5810 5812 5813 5814 5815 5816 5815 5815 5814 5814
5541 5547 5555 5563 5568 5572 5576 5580 5585 5591 5597 5605 5614 5626 5646 5663 5676 5688 5697 5708 5719 5729 5738 5748 5759 5767 5772 5776 5782 5785 5790 5794 5798 5801 5804 5806 5806 5807 5807 5807 5807 5806 5806
5545 5550 5556 5560 5565 5566 5570 5575 5581 5589 5598 5607 5618 5627 5640 5660 5674 5683 5693 5704 5712 5722 5732 5742 5752 5760 5764 5767 5773 5778 5782 5786 5789 5793 5796 5797 5798 5798 5797 5797 5798 5796 5795
5548 5551 5553 5558 5562 5565 5571 5575 5584 5591 5600 5608 5617 5626 5642 5659 5665 5680 5688 5699 5709 5718 5726 5735 5744 5751 5755 5758 5763 5770 5773 5778 5781 5784 5785 5788 5789 5789 5787 5788 5788 5786 5786
5550 5554 5557 5564 5570 5573 5582 5584 5590 5595 5602 5611 5621 5630 5643 5653 5665 5677 5687 5695 5705 5713 5721 5728 5736 5742 5746 5750 5754 5760 5764 5768 5771 5774 5776 5778 5778 5778 5777 5778 5777 5775 5774
5551 5557 5561 5565 5572 5576 5580 5589 5593 5600 5607 5620 5627 5634 5644 5654 5663 5675 5686 5694 5703 5707 5714 5720 5726 5732 5736 5742 5746 5750 5754 5757 5760 5763 5765 5767 5767 5767 5766 5766 5766 5764 5763
5561 5564 5569 5572 5581 5584 5590 5596 5604 5610 5618 5624 5630 5639 5648 5657 5663 5669 5679 5688 5695 5702 5708 5713 5718 5723 5728 5732 5736 5741 5743 5745 5749 5751 5753 5755 5755 5755 5754 5755 5755 5754 5752
5574 5580 5584 5586 5587 5594 5599 5605 5611 5617 5626 5631 5634 5643 5648 5652 5658 5665 5674 5683 5691 5696 5702 5706 5711 5716 5719 5722 5726 5729 5732 5734 5737 5738 5740 5742 5743 5744 5744 5744 5744 5744 5742
5588 5590 5595 5595 5599 5605 5609 5614 5619 5624 5628 5635 5640 5645 5649 5654 5659 5666 5672 5680 5686 5691 5696 5700 5704 5707 5709 5713 5717 5719 5720 5723 5725 5726 5728 5729 5731 5733 5732 5733 5734 5733 5732
5597 5601 5601 5604 5608 5611 5616 5620 5625 5629 5631 5634 5639 5647 5651 5655 5659 5665 5671 5677 5682 5687 5691 5695 5698 5700 5702 5705 5707 5710 5712 5711 5713 5715 5719 5720 5722 5721 5722 5721 5720 5720 5720
5606 5610 5612 5614 5616 5618 5622 5626 5630 5631 5633 5638 5643 5648 5651 5655 5659 5665 5671 5675 5678 5682 5685 5689 5692 5693 5695 5697 5698 5699 5701 5704 5706 5709 5709 5710 5709 5710 5709 5708 5707 5706 5708
5619 5620 5622 5624 5626 5629 5631 5634 5636 5638 5641 5646 5651 5654 5658 5662 5664 5665 5668 5671 5675 5677 5681 5684 5684 5686 5687 5690 5690 5693 5695 5696 5698 5699 5700 5699 5698 5699 5699 5697 5694 5693 5695
5624 5625 5628 5630 5631 5634 5638 5640 5642 5644 5645 5648 5652 5656 5658 5662 5664 5667 5670 5672 5674 5675 5676 5678 5679 5680 5681 5681 5682 5682 5685 5685 5686 5687 5688 5687 5687 5688 5687 5686 5685 5685 5685
5631 5633 5634 5636 5638 5641 5643 5646 5649 5650 5649 5653 5656 5659 5661 5664 5667 5668 5670 5672 5674 5674 5673 5673 5673 5673 5672 5673 5674 5674 5674 5676 5674 5674 5673 5674 5674 5673 5674 5672 5672 5672 5670
5637 5638 5639 5640 5642 5643 5646 5649 5649 5649 5650 5653 5656 5658 5660 5662 5664 5665 5666 5668 5669 5668 5669 5671 5671 5668 5667 5665 5666 5667 5666 5664 5661 5660 5661 5660 5660 5658 5657 5656 5655 5653 5655
5639 5640 5641 5642 5641 5643 5646 5647 5649 5649 5650 5652 5654 5657 5658 5661 5663 5661 5661 5661 5661 5662 5661 5659 5659 5658 5657 5656 5655 5653 5651 5651 5651 5649 5645 5643 5644 5644 5642 5641 5640 5640 5640
5642 5642 5643 5643 5646 5648 5648 5650 5647 5649 5649 5647 5653 5653 5652 5656 5658 5654 5653 5651 5651 5652 5649 5647 5644 5644 5642 5640 5637 5634 5633 5633 5631 5630 5629 5628 5629 5628 5628 5628 5628 5627 5626
5644 5644 5645 5645 5646 5647 5648 5645 5647 5645 5643 5649 5652 5646 5649 5649 5652 5647 5639 5640 5640 5640 5636 5631 5628 5626 5623 5618 5615 5615 5613 5612 5611 5609 5607 5607 5607 5607 5608 5608 5610 5608 5607
5645 5643 5643 5644 5645 5646 5645 5646 5643 5642 5642 5646 5640 5638 5643 5641 5634 5629 5628 5625 5624 5621 5614 5610 5608 5605 5602 5597 5593 5591 5589 5588 5586 5584 5582 5583 5584 5585 5586 5587 5588 5588 5587
5644 5644 5644 5643 5641 5640 5636 5636 5638 5640 5637 5633 5628 5629 5628 5624 5620 5613 5608 5602 5598 5592 5588 5585 5577 5572 5570 5566 5563 5560 5559 5557 5555 5556 5559 5559 5562 5564 5566 5568 5570 5573 5573